#timestamp,LO_Frequency,Hit,StdDev 
1629522015.5,286046998.5,N
1629522035.3,286046999.5,N
1629522055.1,286046999.4,N
1629522075.9,286046997.0,Y
1629522095.7,286046999.4,P
1629522115.6,286046999.1,P
1629522135.4,286046999.1,P
1629522155.2,286046999.2,Y
1629522175.1,286046998.2,P
1629522176.0,286046998.2,P
1629522195.8,286046998.2,P
1629522215.7,286046998.8,N
1629522235.5,286046999.4,N
1629522255.3,286046996.7,Y
1629522275.2,286046998.7,P
1629522295.0,286047000.8,P
1629522295.9,286047000.8,N
1629522315.8,286047000.0,N
1629522335.6,286047000.9,N
1629522355.4,286046998.6,N
1629522375.3,286046998.6,N
1629522395.1,286046998.2,N
1629522415.9,286046998.5,N
1629522435.7,286046999.3,N
1629522455.5,286046996.6,Y
1629522475.4,286046999.1,P
1629522495.2,286046999.3,P
1629522515.1,286046998.7,P
1629522516.0,286046998.7,Y
1629522535.8,286046999.2,P
1629522555.6,286046999.2,P
1629522575.5,286046998.6,P
1629522595.3,286047001.2,Y
1629522615.1,286047000.0,P
1629522635.9,286047000.4,N
1629522655.7,286047002.4,P
1629522675.6,286047002.5,N
1629522695.4,286047002.3,N
1629522715.2,286047002.7,N
1629522735.1,286047002.6,N
1629522736.0,286047002.6,N
1629522755.8,286046999.8,N
1629522775.6,286046999.7,N
1629522795.5,286047002.8,N
1629522815.3,286046999.8,N
1629522835.2,286046999.9,N
1629522855.9,286047000.4,N
1629522875.7,286046999.7,N
1629522895.6,286047002.8,N
1629522915.4,286047002.7,N
1629522935.3,286047000.2,N
1629522955.1,286047000.6,N
1629522956.0,286047000.6,N
1629522975.8,286047000.0,N
1629522995.7,286047000.5,N
1629523015.5,286047001.0,N
1629523035.3,286047000.5,N
1629523055.2,286047000.3,N
1629523075.0,286047000.3,N
1629523075.9,286047000.3,N
1629523095.8,286047000.0,N
1629523115.6,286047000.2,N
1629523135.4,286047000.3,N
1629523155.3,286047000.3,N
1629523175.1,286047001.0,N
1629523195.9,286047000.3,N
1629523215.7,286047002.8,N
1629523235.5,286047002.8,N
1629523255.4,286047002.7,N
1629523275.2,286047000.0,N
1629523295.0,286047000.4,N
1629523295.9,286047000.4,N
1629523315.8,286047000.3,N
1629523335.6,286047001.0,N
1629523355.5,286047000.8,N
1629523375.3,286047000.6,N
1629523395.1,286047001.1,N
1629523415.9,286047001.0,N
1629523435.7,286046999.9,N
1629523455.5,286047000.4,N
1629523475.4,286047000.9,N
1629523495.2,286047000.7,N
1629523515.0,286046998.1,N
1629523516.0,286046998.1,N
1629523535.8,286047000.4,N
1629523555.6,286047000.9,N
1629523575.5,286047002.8,N
1629523595.3,286046999.9,N
1629523615.1,286047002.6,N
1629523635.9,286047002.3,N
1629523655.7,286047002.3,N
1629523675.6,286047002.8,N
1629523695.4,286047000.2,N
1629523715.2,286046999.9,N
1629523735.1,286046999.8,N
1629523736.0,286046999.8,N
1629523755.8,286047000.0,N
1629523775.6,286047000.6,N
1629523795.5,286047000.3,N
1629523815.3,286047000.4,N
1629523835.2,286047000.9,N
1629523855.9,286047000.1,N
1629523875.7,286046999.9,N
1629523895.6,286047000.3,N
1629523915.4,286047000.2,N
1629523935.2,286047000.0,N
1629523955.1,286046999.9,N
1629523956.0,286046999.9,N
1629523975.8,286047000.5,N
1629523995.7,286047000.5,N
1629524015.5,286047000.4,N
1629524035.3,286047000.0,N
1629524055.2,286047002.4,N
1629524075.0,286046999.7,N
1629524075.9,286046999.7,N
1629524095.8,286047002.5,N
1629524115.6,286047002.8,N
1629524135.4,286047002.3,N
1629524155.3,286047001.9,N
1629524175.1,286047002.4,N
1629524195.8,286047000.2,N
1629524215.7,286046999.7,N
1629524235.5,286047000.3,N
1629524255.4,286047002.3,N
1629524275.2,286047001.3,N
1629524295.0,286047004.4,Y
1629524295.9,286047004.4,P
1629524315.8,286047001.2,N
1629524335.6,286046998.2,N
1629524355.4,286047001.0,N
1629524375.3,286047000.9,N
1629524395.1,286047000.8,N
1629524415.9,286046998.2,N
1629524435.7,286046999.5,N
1629524455.5,286046996.7,N
1629524475.4,286046997.2,N
1629524495.2,286046996.9,N
1629524515.0,286046997.9,N
1629524516.0,286046997.9,N
1629524535.8,286046995.0,N
1629524555.6,286046995.5,N
1629524575.5,286046995.1,N
1629524595.3,286046995.3,N
1629524615.1,286046994.9,N
1629524635.9,286046997.2,N
1629524655.7,286046997.4,N
1629524675.5,286046995.0,N
1629524695.4,286046997.4,N
1629524715.2,286046997.7,N
1629524735.1,286046997.5,N
1629524736.0,286046997.5,N
1629524755.8,286046995.0,N
1629524775.6,286046998.0,N
1629524795.5,286046995.0,N
1629524815.3,286046997.9,N
1629524835.1,286046995.2,N
1629524855.9,286046996.2,N
1629524875.7,286046995.9,N
1629524895.6,286046996.0,N
1629524915.4,286046995.4,N
1629524935.2,286046997.9,N
1629524955.1,286046996.9,N
1629524956.0,286046996.9,N
1629524975.8,286046999.5,N
1629524995.6,286046999.6,N
1629525015.5,286046996.5,N
1629525035.3,286046997.0,N
1629525055.2,286046997.9,N
1629525075.9,286046997.8,N
1629525095.7,286046997.1,N
1629525115.6,286046997.2,N
1629525135.4,286046996.8,N
1629525155.3,286046999.5,N
1629525175.1,286046997.0,N
1629525176.0,286046997.0,N
1629525195.8,286046997.7,N
1629525215.7,286046997.5,N
1629525235.6,286046999.5,N
1629525255.5,286046999.2,N
1629525275.3,286046999.4,N
1629525295.1,286046998.5,N
1629525315.9,286046998.2,N
1629525335.7,286046998.2,N
1629525355.6,286046996.5,N
1629525375.4,286046998.8,N
1629525395.2,286046996.8,N
1629525415.1,286046996.7,N
1629525416.0,286046996.7,N
1629525435.8,286046996.9,N
1629525455.6,286046997.7,N
1629525475.5,286046997.4,N
1629525495.3,286046997.2,N
1629525515.2,286046996.7,Y
1629525535.9,286046998.5,P
1629525555.7,286046998.3,P
1629525575.6,286047000.7,N
1629525595.4,286047000.9,N
